Regional Weather Roundup
Issued by NWS

Home | Current Version | Previous Version | Text Only | Print | Product List | Glossary On
Versions: 1 2 3 4 5 6 7 8 9 10 11 12 13 14 15 16 17 18 19 20 21 22 23 24 25 26 27
000
ASUS44 KBMX 251410
RWRAL

ALABAMA REGIONAL WEATHER ROUNDUP
NATIONAL WEATHER SERVICE BIRMINGHAM AL
900 AM CDT SUN JUN 25 2017

NOTE: "FAIR" INDICATES FEW OR NO CLOUDS BELOW 12,000 FEET
WITH NO SIGNIFICANT WEATHER AND/OR OBSTRUCTIONS TO VISIBILITY.

THE REMARK "TC" DENOTES TEMPERATURE IN DEGREES CELSIUS.

ALZ001>011-014-016>018-020-251500-
NORTH ALABAMA

CITY           SKY/WX    TMP DP  RH WIND       PRES   REMARKS
MUSCLE SHOALS  PTSUNNY   71  55  56 NE6       30.23S
HUNTSVILLE     PTSUNNY   69  60  73 NE6       30.22R
DECATUR        CLOUDY    68  60  75 NE3       30.22S
HALEYVILLE     NOT AVBL
GADSDEN        CLOUDY    69  63  81 NE7       30.20R
$$

ALZ012-013-022-023-030>036-040>044-251500-
WEST CENTRAL ALABAMA

CITY           SKY/WX    TMP DP  RH WIND       PRES   REMARKS
TUSCALOOSA     CLOUDY    72  65  78 NE6       30.18F
$$

ALZ015-024>027-033>036-040>044-251500-
CENTRAL ALABAMA

CITY           SKY/WX    TMP DP  RH WIND       PRES   REMARKS
BIRMINGHAM     CLOUDY    71  62  73 NE5       30.21R
MONTGOMERY     CLOUDY    76  65  68 N6        30.16R
SHELBY CO ARPT CLOUDY    73  64  73 N5        30.18S
MAXWELL AFB    NOT AVBL
GREENVILLE     FAIR      79  66  64 N12       30.14R
$$

ALZ019-021-028-029-037-038-045>048-251500-
EAST CENTRAL ALABAMA

CITY           SKY/WX    TMP DP  RH WIND       PRES   REMARKS
ANNISTON       CLOUDY    71  63  75 N6        30.18S
ALEXANDER CITY CLOUDY    71  65  83 CALM      30.17S
AUBURN         CLOUDY    72  65  78 N9        30.17R
$$

ALZ051>064-251500-
SOUTHWEST ALABAMA

CITY           SKY/WX    TMP DP  RH WIND       PRES   REMARKS
MOBILE         PTSUNNY   79  71  76 NE8       30.14R
BROOKLEY FIELD MOSUNNY   82  75  79 N9        30.14R
EVERGREEN      CLOUDY    78  70  76 N7        30.14S
$$

ALZ049-050-065>069-251500-
SOUTHEAST ALABAMA

CITY           SKY/WX    TMP DP  RH WIND       PRES   REMARKS
DOTHAN         PTSUNNY   80  77  90 N8        30.14F
OZARK          MOSUNNY   81  74  79 NW9       30.11S
TROY           CLOUDY    77  69  76 N8        30.15R
EUFAULA        FAIR      80  72  76 VRB5      30.12R
$$




USA.gov is the U.S. government's official web portal to all federal, state and local government web resources and services.